P/2020 K9 ( Lemmon-PanSTARRS )

Japanese version
Home page
Updated on November 5, 2020

---------------------------------------------------------------------

* Profile

Discovery Date May 22 and 26, 2020
Magnitude 20.5 mag and 19.5 mag
Discoverer Mt. Lemmon Survey, Pan-STARRS 1 telescope (Haleakala)

* Pictures

* Orbital Elements

Epoch 2021 Jan. 26.0 TT = JDT 2459240.5
T 2021 Feb. 11.80568 TT                                 Rudenko
q   2.8494714            (2000.0)            P               Q
n   0.11449284     Peri.  196.87340     +0.99293712     -0.07272226
a   4.2003340      Node   166.23934     +0.07438782     +0.99712552
e   0.3216084      Incl.   23.20924     -0.09242475     +0.02126453
P   8.61
From 93 observations 2020 May 22-Oct. 19, mean residual 0".5.

* Magnitudes Graph

        m1 = 12.0 + 5 log d + 10.0 log r

---------------------------------------------------------------------

The orbital elements are published on M.P.E.C. 2020-U270.
The magnitudes graphs are made with Comet for Windows.

---------------------------------------------------------------------

Copyright(C) Seiichi Yoshida (comet@aerith.net). All rights reserved.